Weather History for Wray Municipal Airport, CO

Change the Weather History Date:

Monday, February 3, 2014

  Actual Average (KHEQ) Record (KHEQ)
Temperature  
Mean Temperature 8 °F -  
Max Temperature 23 °F 43 °F 24 °F (2014)
Min Temperature -7 °F 16 °F -4 °F (2014)
Degree Days  
Heating Degree Days 57    
Moisture  
Dew Point 2 °F    
Average Humidity 82    
Maximum Humidity 95    
Minimum Humidity 69    
Precipitation  
Precipitation 0.00 in - - ()
Sea Level Pressure  
Sea Level Pressure 29.94 in    
Wind  
Wind Speed 2 mph (WNW)    
Max Wind Speed 9 mph    
Max Gust Speed -    
Visibility 8 miles    
Events      
Averages and records for this station are not official NWS values.
T = Trace of Precipitation, MM = Missing Value Source: NWS Daily Summary

Daily Weather History Graph

Daily Weather History Graph

Search for Another Location

Airport:

Trip Planner

Search our weather history database for the weather conditions in past years. The results will help you decide how hot, cold, wet, or windy it might be!

Date:

Astronomy

Feb. 03, 2014 Rise Set
Actual Time 6:55 AM MST 5:10 PM MST
Civil Twilight 6:27 AM MST 5:39 PM MST
Nautical Twilight 5:54 AM MST 6:11 PM MST
Astronomical Twilight 5:23 AM MST 6:43 PM MST
Moon 8:59 AM MST (2/3) 10:03 PM MST (2/3)
Length of Visible Light 11h 11m
Length of Day
10h 14m
Waxing Crescent, 20% of the Moon is Illuminated
Feb 3
Waxing Crescent
Feb 6
First Quarter
Feb 14
Full
Feb 22
Last Quarter
Mar 1
New

Hourly Weather History & Observations

Time (MST) Temp. Windchill Dew Point Humidity Pressure Visibility Wind Dir Wind Speed Gust Speed Precip Events Conditions
12:15 AM -5.3 °F - -9.0 °F 84% 30.00 in 4.0 mi Calm Calm - N/A   Clear
12:35 AM -6.2 °F -14.9 °F -10.3 °F 82% 29.99 in 4.0 mi WSW 3.5 mph - N/A   Clear
12:55 AM -6.7 °F -15.5 °F -11.0 °F 81% 29.98 in 7.0 mi West 3.5 mph - N/A   Clear
1:15 AM -7.4 °F -16.3 °F -11.7 °F 81% 29.99 in 7.0 mi WSW 3.5 mph - N/A   Clear
1:35 AM -5.6 °F -16.5 °F -9.2 °F 84% 29.98 in 7.0 mi West 4.6 mph - N/A   Clear
1:55 AM -4.2 °F - -8.1 °F 83% 29.98 in 7.0 mi Calm Calm - N/A   Clear
2:15 AM -5.1 °F -13.6 °F -9.0 °F 83% 29.98 in 7.0 mi West 3.5 mph - N/A   Scattered Clouds
2:35 AM -4.5 °F - -8.3 °F 84% 29.97 in 10.0 mi Calm Calm - N/A   Scattered Clouds
2:55 AM -4.9 °F -13.4 °F -9.2 °F 82% 29.97 in 10.0 mi WSW 3.5 mph - N/A   Scattered Clouds
3:15 AM -4.4 °F - -8.5 °F 82% 29.96 in 10.0 mi Calm Calm - N/A   Scattered Clouds
3:35 AM -4.2 °F - -8.1 °F 83% 29.95 in 7.0 mi Calm Calm - N/A   Scattered Clouds
3:55 AM -3.1 °F - -6.7 °F 85% 29.95 in 7.0 mi Calm Calm - N/A   Mostly Cloudy
4:15 AM -3.1 °F - -6.9 °F 84% 29.95 in 7.0 mi Calm Calm - N/A   Scattered Clouds
4:35 AM -2.4 °F -10.6 °F -6.0 °F 85% 29.93 in 7.0 mi West 3.5 mph - N/A   Mostly Cloudy
4:55 AM -1.1 °F -9.1 °F -4.7 °F 85% 29.93 in 7.0 mi WSW 3.5 mph - N/A   Overcast
5:15 AM -0.9 °F -14.1 °F -4.5 °F 85% 29.94 in 7.0 mi West 6.9 mph - N/A   Scattered Clouds
5:35 AM 0.3 °F - -3.3 °F 85% 29.93 in 7.0 mi Calm Calm - N/A   Scattered Clouds
5:55 AM -0.4 °F - -4.0 °F 85% 29.93 in 7.0 mi Calm Calm - N/A   Scattered Clouds
6:15 AM -1.3 °F - -4.9 °F 85% 29.92 in 7.0 mi Calm Calm - N/A   Scattered Clouds
6:35 AM -2.0 °F -10.1 °F -6.0 °F 83% 29.92 in 7.0 mi SW 3.5 mph - N/A   Clear
6:55 AM -3.3 °F - -7.1 °F 84% 29.92 in 7.0 mi Calm Calm - N/A   Clear
7:15 AM -4.2 °F -14.8 °F -7.8 °F 84% 29.93 in 7.0 mi NW 4.6 mph - N/A   Clear
7:35 AM -5.1 °F -15.8 °F -8.9 °F 84% 29.94 in 5.0 mi SW 4.6 mph - N/A   Clear
7:55 AM -3.8 °F -14.4 °F -7.6 °F 84% 29.93 in 7.0 mi SW 4.6 mph - N/A   Clear
8:15 AM -2.6 °F -14.6 °F -6.3 °F 84% 29.95 in 7.0 mi West 5.8 mph - N/A   Clear
8:35 AM -0.2 °F -10.1 °F -3.8 °F 85% 29.95 in 7.0 mi West 4.6 mph - N/A   Clear
8:55 AM 3.9 °F -5.3 °F 0.9 °F 87% 29.96 in 10.0 mi WNW 4.6 mph - N/A   Clear
9:15 AM 6.1 °F - 3.0 °F 87% 29.96 in 7.0 mi Calm Calm - N/A   Clear
9:35 AM 5.9 °F - 3.0 °F 88% 29.95 in 7.0 mi Calm Calm - N/A   Clear
9:55 AM 6.8 °F - 4.1 °F 89% 29.95 in 10.0 mi Calm Calm - N/A   Clear
10:15 AM 8.1 °F - 5.0 °F 87% 29.94 in 10.0 mi Calm Calm - N/A   Clear
10:35 AM 9.0 °F 2.4 °F 5.9 °F 87% 29.94 in 10.0 mi WSW 3.5 mph - N/A   Clear
10:55 AM 10.0 °F 3.6 °F 6.8 °F 87% 29.94 in 10.0 mi WSW 3.5 mph - N/A   Clear
11:15 AM 11.1 °F 4.9 °F 7.7 °F 86% 29.95 in 10.0 mi WSW 3.5 mph - N/A   Clear
11:35 AM 13.1 °F 7.1 °F 9.3 °F 85% 29.94 in 10.0 mi SW 3.5 mph - N/A   Scattered Clouds
11:55 AM 14.2 °F 6.7 °F 9.1 °F 80% 29.93 in 7.0 mi WSW 4.6 mph - N/A   Scattered Clouds
12:15 PM 15.6 °F 4.0 °F 10.2 °F 79% 29.92 in 10.0 mi West 9.2 mph - N/A   Clear
12:35 PM 18.1 °F 7.1 °F 11.7 °F 76% 29.91 in 7.0 mi WNW 9.2 mph - N/A   Clear
12:55 PM 20.5 °F 15.6 °F 12.2 °F 70% 29.91 in 10.0 mi NW 3.5 mph - N/A   Clear
1:15 PM 21.2 °F 13.6 °F 13.1 °F 71% 29.91 in 10.0 mi NW 5.8 mph - N/A   Clear
1:35 PM 23.0 °F - 14.2 °F 69% 29.90 in 10.0 mi Calm Calm - N/A   Clear
1:55 PM 23.2 °F 17.2 °F 14.7 °F 70% 29.90 in 10.0 mi NNE 4.6 mph - N/A   Clear
2:15 PM 22.8 °F 18.2 °F 14.5 °F 71% 29.90 in 10.0 mi NNE 3.5 mph - N/A   Clear
2:35 PM 23.9 °F - 15.1 °F 69% 29.90 in 10.0 mi Calm Calm - N/A   Clear
2:55 PM 23.5 °F 19.1 °F 15.1 °F 70% 29.90 in 10.0 mi ENE 3.5 mph - N/A   Clear
3:15 PM 23.5 °F 17.6 °F 15.1 °F 70% 29.90 in 10.0 mi ENE 4.6 mph - N/A   Clear
3:35 PM 22.6 °F 16.5 °F 14.9 °F 72% 29.90 in 10.0 mi ENE 4.6 mph - N/A   Clear
3:55 PM 22.1 °F 17.4 °F 14.9 °F 74% 29.91 in 10.0 mi ENE 3.5 mph - N/A   Clear
4:15 PM 20.1 °F 12.3 °F 14.0 °F 77% 29.91 in 10.0 mi ENE 5.8 mph - N/A   Clear
4:35 PM 18.5 °F 11.7 °F 13.1 °F 79% 29.91 in 10.0 mi NE 4.6 mph - N/A   Clear
4:55 PM 17.6 °F 12.3 °F 12.7 °F 81% 29.92 in 10.0 mi ENE 3.5 mph - N/A   Scattered Clouds
5:15 PM 16.3 °F 9.2 °F 12.7 °F 86% 29.92 in 10.0 mi NE 4.6 mph - N/A   Scattered Clouds
5:35 PM 14.5 °F - 12.6 °F 92% 29.93 in 10.0 mi Calm Calm - N/A   Clear
5:55 PM 14.5 °F - 13.5 °F 95% 29.95 in 7.0 mi Calm Calm - N/A   Clear